Location: Borotín
(49.5055°N, 14.6142°E)
Time: 11:34:25
(UTC+00:00)

Lacrosse 5 rocket - Pass Details

Date: 27 May 2022
Orbit: 457 x 629 km, 57.0° (Epoch: 27 June)

Event Time Altitude Azimuth Distance (km) Brightness Sun altitude
Exits shadow 01:14:09 22° 211° (SSW) 1,141 2.3 -13.1°
Maximum altitude 01:16:26 57° 139° (SE) 620 1.4 -12.9°
Drops below altitude 10° 01:20:27 10° 61° (ENE) 1,817 5.0 -12.5°
Sets 01:22:46 0° 57° (ENE) 2,747 6.2 -12.3°
